Zurück zum Katalog

OPS 4682 DEB

AktivPO
NORAD 38426·DEBRIS·🇺🇸 United States

Gestartet Apr 3, 1965 von Vandenberg Space Force Base

Loading…

Nächste Überflüge (nächste 24 Stunden)

TLE

AktuellSource: Space-Track

Epoche: Sep 14, 2026, 14:18 UTC

1 38426U 65027EF  26257.59600252  .00000120  00000-0  39466-3 0  9998
2 38426  90.2516  12.0688 0033575 272.4532  87.2744 12.96157426646642

Verfolge OPS 4682 DEB in Echtzeit mit AllMySat

Download on the App Store